This demonstration page uses our WeatherBlox Daily Observations layout. Learn more.

Left ArrowRight Arrow

39.01783, -85.05884

Hourly Observations for February 2, 2017

Temp ( °F °C ) Dew Point ( °F °C ) Humidity (%) Winds ( mph kmh ) Pressure ( in mb ) Visibility ( mi km ) Precip ( " mm )
12:52 am 00:52 Cloudy 33 0.6 26 -3.3 75 75 WNW 7 11 30.19 1022 10 16 0.00 0.00
1:52 am 01:52 Mostly Cloudy 32 0 25 -3.9 75 75 WNW 9 15 30.20 1023 10 16 0.00 0.00
2:52 am 02:52 Partly Cloudy 32 0 23 -5 69 69 WNW 10 17 30.22 1023 10 16 0.00 0.00
3:52 am 03:52 Mostly Clear 29 -1.7 21 -6.1 72 72 WNW 8 13 30.23 1024 10 16 0.00 0.00
4:52 am 04:52 Clear 29 -1.7 19 -7.2 66 66 NW 8 13 30.24 1024 10 16 0.00 0.00
5:52 am 05:52 Cloudy 29 -1.7 17 -8.3 61 61 NW 13 20 30.25 1024 10 16 0.00 0.00
6:52 am 06:52 Cloudy 28 -2.2 18 -7.8 66 66 NW 9 15 30.28 1025 10 16 0.00 0.00
7:52 am 07:52 Cloudy 28 -2.2 18 -7.8 66 66 NW 10 17 30.31 1027 10 16 0.00 0.00
8:52 am 08:52 Cloudy 28 -2.2 16 -8.9 60 60 NW 13 20 30.34 1027 10 16 0.00 0.00
9:52 am 09:52 Cloudy 28 -2.2 17 -8.3 63 63 NW 10 17 30.34 1028 10 16 0.00 0.00
10:52 am 10:52 Mostly Sunny 31 -0.6 17 -8.3 56 56 NNW 12 19 30.36 1028 10 16 0.00 0.00
11:52 am 11:52 Mostly Sunny 32 0 16 -8.9 52 52 WNW 8 13 30.37 1029 10 16 0.00 0.00
12:52 pm 12:52 Mostly Sunny 34 1.1 12 -11.1 40 40 WNW 8 13 30.35 1028 10 16 0.00 0.00
1:52 pm 13:52 Partly Cloudy 35 1.7 12 -11.1 38 38 WNW 13 20 30.34 1027 10 16 0.00 0.00
2:52 pm 14:52 Mostly Sunny 36 2.2 9 -12.8 32 32 W 8 13 30.32 1027 10 16 0.00 0.00
3:52 pm 15:52 Partly Cloudy 36 2.2 6 -14.4 28 28 WNW 9 15 30.33 1027 10 16 0.00 0.00
4:52 pm 16:52 Mostly Cloudy 35 1.7 8 -13.3 32 32 NNW 10 17 30.35 1028 10 16 0.00 0.00
5:52 pm 17:52 Mostly Cloudy 32 0 8 -13.3 36 36 NW 12 19 30.35 1028 10 16 0.00 0.00
6:52 pm 18:52 Mostly Cloudy 30 -1.1 8 -13.3 39 39 NW 8 13 30.35 1028 10 16 0.00 0.00
7:52 pm 19:52 Mostly Clear 27 -2.8 9 -12.8 46 46 WNW 8 13 30.36 1028 10 16 0.00 0.00
8:52 pm 20:52 Mostly Cloudy 27 -2.8 9 -12.8 46 46 NNW 8 13 30.36 1028 10 16 0.00 0.00
9:52 pm 21:52 Cloudy 26 -3.3 9 -12.8 48 48 NW 5 7 30.36 1028 10 16 0.00 0.00
10:52 pm 22:52 Mostly Cloudy 25 -3.9 10 -12.2 53 53 NW 7 11 30.35 1028 10 16 0.00 0.00
11:52 pm 23:52 Cloudy 25 -3.9 11 -11.7 55 55 NW 6 9 30.35 1028 10 16 0.00 0.00

Powered by AerisWeather